When you browse on this site, cookies collect data to enhance your experience and personalize the content and advertising you see.
Visit our Privacy Policy to learn more. By continuing to use the site, you agree to this use of cookies and data.
  • Em Portugal
  • Lista de países
  • Para 7 dias
  • Temperatura da água
  • Mapas de satélite
  • Mapa do tempo
  • Widgets de tempo
  • user-avatar
    Iniciar Sessão

    Previsão horária em Nesebyr

    Hoje, 25 Maio, Sábado

    Tempo Temperatura Precipitação Vento Pressão Humidade
    00:00 +15°C° 0 mm 2 m/s 755 mmHg 87%
    01:00 +13°C° 0 mm 3 m/s 755 mmHg 87%
    02:00 +14°C° 0 mm 2 m/s 755 mmHg 87%
    03:00 +14°C° 0 mm 2 m/s 755 mmHg 88%
    04:00 +12°C° 0 mm 3 m/s 755 mmHg 88%
    05:00 +12°C° 0 mm 3 m/s 756 mmHg 88%
    06:00 +14°C° 0 mm 3 m/s 756 mmHg 82%
    07:00 +17°C° 0 mm 3 m/s 756 mmHg 76%
    08:00 +19°C° 0 mm 4 m/s 757 mmHg 70%
    09:00 +20°C° 0 mm 4 m/s 757 mmHg 65%
    10:00 +22°C° 0 mm 4 m/s 757 mmHg 60%
    11:00 +23°C° 0 mm 4 m/s 757 mmHg 55%
    12:00 +25°C° 0.5 mm 3 m/s 757 mmHg 56%
    13:00 +25°C° 0.5 mm 3 m/s 757 mmHg 58%
    14:00 +25°C° 0.5 mm 3 m/s 757 mmHg 59%
    15:00 +25°C° 0.4 mm 3 m/s 757 mmHg 61%
    16:00 +25°C° 0.4 mm 3 m/s 757 mmHg 62%
    17:00 +25°C° 0.4 mm 3 m/s 757 mmHg 64%
    18:00 +23°C° 0.1 mm 2 m/s 757 mmHg 68%
    19:00 +20°C° 0.1 mm 2 m/s 757 mmHg 73%
    20:00 +19°C° 0.1 mm 1 m/s 757 mmHg 78%
    21:00 +19°C° 0 mm 1 m/s 757 mmHg 80%
    22:00 +18°C° 0 mm 1 m/s 758 mmHg 82%
    23:00 +17°C° 0 mm 2 m/s 758 mmHg 84%

    Amanhã, 26 Maio, Domingo

    Tempo Temperatura Precipitação Vento Pressão Humidade
    00:00 +16°C° 0 mm 2 m/s 758 mmHg 84%
    01:00 +16°C° 0 mm 2 m/s 758 mmHg 85%
    02:00 +16°C° 0 mm 2 m/s 759 mmHg 86%
    03:00 +16°C° 0 mm 2 m/s 759 mmHg 85%
    04:00 +16°C° 0 mm 2 m/s 759 mmHg 85%
    05:00 +14°C° 0 mm 3 m/s 759 mmHg 85%
    06:00 +17°C° 0 mm 2 m/s 759 mmHg 79%
    07:00 +20°C° 0 mm 2 m/s 759 mmHg 72%
    08:00 +23°C° 0 mm 2 m/s 760 mmHg 66%
    09:00 +24°C° 0 mm 2 m/s 760 mmHg 61%
    10:00 +26°C° 0 mm 1 m/s 760 mmHg 55%
    11:00 +27°C° 0 mm 1 m/s 760 mmHg 50%
    12:00 +28°C° 0 mm 1 m/s 760 mmHg 49%
    13:00 +28°C° 0 mm 1 m/s 760 mmHg 48%
    14:00 +29°C° 0 mm 1 m/s 760 mmHg 47%
    15:00 +28°C° 0 mm 2 m/s 760 mmHg 49%
    16:00 +28°C° 0 mm 2 m/s 760 mmHg 50%
    17:00 +28°C° 0 mm 2 m/s 759 mmHg 52%
    18:00 +25°C° 0 mm 2 m/s 760 mmHg 60%
    19:00 +23°C° 0 mm 2 m/s 760 mmHg 68%
    20:00 +20°C° 0 mm 2 m/s 760 mmHg 76%
    21:00 +19°C° 0 mm 2 m/s 760 mmHg 79%
    22:00 +19°C° 0 mm 2 m/s 760 mmHg 82%
    23:00 +18°C° 0 mm 2 m/s 761 mmHg 85%

    Depois de amanhã, 27 Maio, Segunda-feira

    Tempo Temperatura Precipitação Vento Pressão Humidade
    00:00 +19°C° 0 mm 1 m/s 760 mmHg 86%
    01:00 +19°C° 0 mm 1 m/s 760 mmHg 87%
    02:00 +16°C° 0 mm 0 m/s 760 mmHg 88%
    03:00 +16°C° 0 mm 0 m/s 760 mmHg 88%
    04:00 +16°C° 0 mm 0 m/s 760 mmHg 87%
    05:00 +16°C° 0 mm 0 m/s 760 mmHg 87%
    06:00 +18°C° 0 mm 0 m/s 760 mmHg 80%
    07:00 +20°C° 0 mm 0 m/s 761 mmHg 73%
    08:00 +22°C° 0 mm 0 m/s 761 mmHg 66%
    09:00 +25°C° 0 mm 2 m/s 761 mmHg 60%
    10:00 +27°C° 0 mm 3 m/s 761 mmHg 55%
    11:00 +28°C° 0 mm 4 m/s 761 mmHg 49%
    12:00 +28°C° 0 mm 4 m/s 760 mmHg 49%
    13:00 +28°C° 0 mm 5 m/s 760 mmHg 48%
    14:00 +28°C° 0 mm 5 m/s 760 mmHg 48%
    15:00 +27°C° 0 mm 5 m/s 760 mmHg 52%
    16:00 +26°C° 0 mm 5 m/s 759 mmHg 55%
    17:00 +25°C° 0 mm 5 m/s 759 mmHg 59%
    18:00 +22°C° 0 mm 4 m/s 759 mmHg 68%
    19:00 +20°C° 0 mm 4 m/s 759 mmHg 77%
    20:00 +18°C° 0 mm 3 m/s 759 mmHg 85%
    21:00 +17°C° 0 mm 2 m/s 759 mmHg 87%
    22:00 +17°C° 0 mm 2 m/s 760 mmHg 88%
    23:00 +16°C° 0 mm 2 m/s 760 mmHg 90%

    28 Maio, Terça-feira

    Tempo Temperatura Precipitação Vento Pressão Humidade
    00:00 +16°C° 0 mm 2 m/s 759 mmHg 89%
    01:00 +16°C° 0 mm 1 m/s 759 mmHg 89%
    02:00 +16°C° 0 mm 1 m/s 759 mmHg 89%
    03:00 +15°C° 0 mm 1 m/s 758 mmHg 89%
    04:00 +15°C° 0 mm 1 m/s 758 mmHg 89%
    05:00 +15°C° 0 mm 1 m/s 758 mmHg 89%
    06:00 +19°C° 0 mm 1 m/s 758 mmHg 81%
    07:00 +20°C° 0 mm 2 m/s 758 mmHg 74%
    08:00 +23°C° 0 mm 2 m/s 758 mmHg 66%
    09:00 +25°C° 0 mm 2 m/s 758 mmHg 61%
    10:00 +27°C° 0 mm 2 m/s 757 mmHg 55%
    11:00 +29°C° 0 mm 2 m/s 757 mmHg 50%
    12:00 +30°C° 0 mm 3 m/s 757 mmHg 49%
    13:00 +31°C° 0 mm 3 m/s 756 mmHg 47%
    14:00 +33°C° 0 mm 4 m/s 756 mmHg 46%
    15:00 +32°C° 0 mm 4 m/s 756 mmHg 49%
    16:00 +30°C° 0 mm 4 m/s 755 mmHg 53%
    17:00 +30°C° 0 mm 4 m/s 755 mmHg 56%
    18:00 +27°C° 0 mm 3 m/s 755 mmHg 64%
    19:00 +25°C° 0 mm 3 m/s 755 mmHg 71%
    20:00 +23°C° 0 mm 2 m/s 755 mmHg 79%
    21:00 +21°C° 0 mm 2 m/s 755 mmHg 72%
    22:00 +21°C° 0 mm 2 m/s 755 mmHg 66%
    23:00 +20°C° 0 mm 2 m/s 755 mmHg 60%

    29 Maio, Quarta-feira

    Tempo Temperatura Precipitação Vento Pressão Humidade
    00:00 +20°C° 0 mm 3 m/s 755 mmHg 56%
    01:00 +20°C° 0 mm 3 m/s 755 mmHg 53%
    02:00 +20°C° 0 mm 3 m/s 755 mmHg 50%
    03:00 +19°C° 0 mm 3 m/s 755 mmHg 56%
    04:00 +18°C° 0 mm 3 m/s 755 mmHg 63%
    05:00 +17°C° 0 mm 3 m/s 755 mmHg 70%
    06:00 +20°C° 0 mm 3 m/s 756 mmHg 66%
    07:00 +22°C° 0 mm 3 m/s 756 mmHg 63%
    08:00 +25°C° 0 mm 3 m/s 756 mmHg 60%
    09:00 +27°C° 0 mm 4 m/s 756 mmHg 56%
    10:00 +28°C° 0 mm 4 m/s 756 mmHg 52%
    11:00 +30°C° 0 mm 4 m/s 756 mmHg 48%
    12:00 +32°C° 0 mm 4 m/s 756 mmHg 46%
    13:00 +31°C° 0 mm 3 m/s 756 mmHg 44%
    14:00 +33°C° 0 mm 3 m/s 756 mmHg 42%
    15:00 +33°C° 0 mm 3 m/s 756 mmHg 44%
    16:00 +31°C° 0 mm 3 m/s 756 mmHg 46%
    17:00 +31°C° 0 mm 3 m/s 756 mmHg 48%
    18:00 +29°C° 0 mm 3 m/s 756 mmHg 54%
    19:00 +26°C° 0 mm 3 m/s 757 mmHg 60%
    20:00 +24°C° 0 mm 3 m/s 757 mmHg 66%
    21:00 +22°C° 0 mm 3 m/s 757 mmHg 67%
    22:00 +21°C° 0 mm 3 m/s 757 mmHg 69%
    23:00 +20°C° 0 mm 2 m/s 758 mmHg 70%

    30 Maio, Quinta-feira

    Tempo Temperatura Precipitação Vento Pressão Humidade
    00:00 +19°C° 0 mm 2 m/s 758 mmHg 71%
    01:00 +19°C° 0 mm 2 m/s 758 mmHg 73%
    02:00 +19°C° 0 mm 2 m/s 758 mmHg 74%
    03:00 +19°C° 0 mm 2 m/s 758 mmHg 75%
    04:00 +18°C° 0 mm 2 m/s 759 mmHg 76%
    05:00 +18°C° 0 mm 2 m/s 759 mmHg 77%
    06:00 +21°C° 0 mm 2 m/s 759 mmHg 72%
    07:00 +24°C° 0 mm 2 m/s 759 mmHg 67%
    08:00 +26°C° 0 mm 2 m/s 760 mmHg 62%
    09:00 +28°C° 0 mm 3 m/s 760 mmHg 58%
    10:00 +29°C° 0 mm 3 m/s 760 mmHg 54%
    11:00 +31°C° 0 mm 3 m/s 760 mmHg 50%
    12:00 +32°C° 0.1 mm 4 m/s 759 mmHg 50%
    13:00 +32°C° 0.1 mm 4 m/s 759 mmHg 49%
    14:00 +32°C° 0.1 mm 4 m/s 759 mmHg 49%
    15:00 +32°C° 0 mm 4 m/s 759 mmHg 51%
    16:00 +30°C° 0 mm 3 m/s 759 mmHg 54%
    17:00 +29°C° 0 mm 3 m/s 759 mmHg 56%
    18:00 +27°C° 0 mm 2 m/s 759 mmHg 62%
    19:00 +25°C° 0 mm 2 m/s 759 mmHg 69%
    20:00 +23°C° 0 mm 1 m/s 759 mmHg 75%
    21:00 +23°C° 0 mm 1 m/s 759 mmHg 76%
    22:00 +20°C° 0 mm 0 m/s 760 mmHg 76%
    23:00 +20°C° 0 mm 0 m/s 760 mmHg 77%
    Mostrar mais